KOREASAT 5

导读

KOREASAT 5是韩国(KR)于2006年8月22日发射的通信卫星,由KT公司运营,定点于东经113度地球静止轨道。该卫星配备了大功率Ku波段转发器,兼具商用通信和军事侦察功能,可覆盖亚洲、中东及部分欧洲区域,承担广播电视传输、宽带通信服务,同时为韩国军方提供指挥通信支持,设计寿命约15年,目前已超期服役,仍在部分区域提供服务。

Basic Information
目录编号:
29349
目录名称:
KOREASAT 5
国际标识:
2006-034A
轨道中心:
EARTH
卫星名称:
KOREASAT 5
卫星全名:
--
卫星状态:
在轨 (已飞行7239 天)
发射日期:
2006-08-22 UTC
国别 :
韩国 (KR)
星等 :
--
Orbit Information
数据来源 国际轨道数据 AOE轨道数据
星历时间 2026-06-17T02:41:08+0800
21小时前
查看轨道信息
2026-06-17T04:00:00+0800
20小时前
查看轨道信息
半长轴 42165.289km 42165.177km
偏心率 0.000144 0.0001344
轨道倾角 1.785° 1.785°
近地点辐角 52.656° 52.114°
升交点赤经 82.990° 83.000°
平近点角 162.738° 183.042°
近地点 35781.08km 35781.373km
远地点 35793.224km 35792.707km
周期 1436.125分钟 1436.120分钟
每日圈数 1.002698 1.002702
Detailed Information
使用方式:
暂无
2D Orbit Map
3D Orbit Map
Orbit Altitude Analysis Chart
Orbit Inclination Analysis Chart
Orbit Comprehensive Analysis Chart
View Comprehensive Chart